Time,TemperatureF,DewpointF,PressureIn,WindDirection,WindDirectionDegrees,WindSpeedMPH,WindSpeedGustMPH,Humidity,HourlyPrecipIn,Conditions,Clouds,dailyrainin,SoftwareType,DateUTC
2013-07-13 00:02:00,-999.0,-99.9,29.98,SSE,160,11.0,13.0,-999,-99.99,,,-99.99,,2013-07-13 04:02:00,
2013-07-13 00:12:00,-999.0,-99.9,29.97,South,175,9.0,13.0,-999,-99.99,,,-99.99,,2013-07-13 04:12:00,
2013-07-13 00:22:00,-999.0,-99.9,29.97,South,182,9.0,10.0,-999,-99.99,,,-99.99,,2013-07-13 04:22:00,
2013-07-13 00:32:00,-999.0,-99.9,29.97,South,176,8.0,10.0,-999,-99.99,,,-99.99,,2013-07-13 04:32:00,
2013-07-13 00:44:00,-999.0,-99.9,29.97,South,176,8.0,10.0,-999,-99.99,,,-99.99,,2013-07-13 04:44:00,
2013-07-13 00:52:00,-999.0,-99.9,29.97,SSW,206,5.0,6.0,-999,-99.99,,,-99.99,,2013-07-13 04:52:00,
2013-07-13 01:11:00,79.0,-99.9,29.97,North,-999,-999.0,-999.0,-999,-99.99,,,-99.99,,2013-07-13 05:11:00,
2013-07-13 01:22:00,-999.0,-99.9,29.97,SSW,201,3.0,4.0,-999,-99.99,,,-99.99,,2013-07-13 05:22:00,
2013-07-13 01:42:00,80.0,-99.9,29.96,North,-999,-999.0,-999.0,-999,-99.99,,,-99.99,,2013-07-13 05:42:00,
2013-07-13 02:02:00,80.0,-99.9,29.95,North,-999,-999.0,-999.0,-999,-99.99,,,-99.99,,2013-07-13 06:02:00,
2013-07-13 02:22:00,-999.0,-99.9,29.95,SSE,156,9.0,12.0,-999,-99.99,,,-99.99,,2013-07-13 06:22:00,
2013-07-13 02:52:00,-999.0,-99.9,29.94,SSE,157,11.0,12.0,-999,-99.99,,,-99.99,,2013-07-13 06:52:00,
2013-07-13 03:02:00,-999.0,-99.9,29.94,SSE,157,11.0,12.0,-999,-99.99,,,-99.99,,2013-07-13 07:02:00,
2013-07-13 03:22:00,-999.0,-99.9,29.94,SSE,163,11.0,15.0,-999,-99.99,,,-99.99,,2013-07-13 07:22:00,
2013-07-13 03:44:00,-999.0,-99.9,29.94,SSE,166,12.0,14.0,-999,-99.99,,,-99.99,,2013-07-13 07:44:00,
2013-07-13 03:53:00,79.0,-99.9,29.94,North,-999,-999.0,-999.0,-999,-99.99,,,-99.99,,2013-07-13 07:53:00,
2013-07-13 04:02:00,-999.0,-99.9,29.94,SSE,162,13.0,15.0,-999,-99.99,,,-99.99,,2013-07-13 08:02:00,
2013-07-13 04:33:00,-999.0,-99.9,29.94,SSE,166,12.0,15.0,-999,-99.99,,,-99.99,,2013-07-13 08:33:00,
2013-07-13 04:43:00,-999.0,-99.9,29.94,South,178,10.0,13.0,-999,-99.99,,,-99.99,,2013-07-13 08:43:00,
2013-07-13 04:52:00,79.0,-99.9,29.94,North,-999,-999.0,-999.0,-999,-99.99,,,-99.99,,2013-07-13 08:52:00,
2013-07-13 05:02:00,-999.0,-99.9,29.94,South,179,9.0,11.0,-999,-99.99,,,-99.99,,2013-07-13 09:02:00,
2013-07-13 05:11:00,-999.0,-99.9,29.94,SSE,168,10.0,12.0,-999,-99.99,,,-99.99,,2013-07-13 09:11:00,
2013-07-13 05:22:00,-999.0,-99.9,29.94,South,176,11.0,13.0,-999,-99.99,,,-99.99,,2013-07-13 09:22:00,
2013-07-13 05:33:00,-999.0,-99.9,29.94,South,181,9.0,11.0,-999,-99.99,,,-99.99,,2013-07-13 09:33:00,
2013-07-13 05:43:00,79.0,-99.9,29.95,North,-999,-999.0,-999.0,-999,-99.99,,,-99.99,,2013-07-13 09:43:00,
2013-07-13 05:53:00,-999.0,-99.9,29.95,South,173,10.0,12.0,-999,-99.99,,,-99.99,,2013-07-13 09:53:00,
2013-07-13 06:01:00,-999.0,-99.9,29.95,South,171,12.0,14.0,-999,-99.99,,,-99.99,,2013-07-13 10:01:00,
2013-07-13 06:32:00,-999.0,-99.9,29.94,South,172,10.0,12.0,-999,-99.99,,,-99.99,,2013-07-13 10:32:00,
2013-07-13 06:43:00,-999.0,-99.9,29.95,South,190,9.0,11.0,-999,-99.99,,,-99.99,,2013-07-13 10:43:00,
2013-07-13 06:52:00,-999.0,-99.9,29.95,SSW,201,7.0,9.0,-999,-99.99,,,-99.99,,2013-07-13 10:52:00,
2013-07-13 07:11:00,-999.0,-99.9,29.95,South,185,7.0,8.0,-999,-99.99,,,-99.99,,2013-07-13 11:11:00,
2013-07-13 07:22:00,-999.0,-99.9,29.95,South,185,7.0,8.0,-999,-99.99,,,-99.99,,2013-07-13 11:22:00,
2013-07-13 08:02:00,79.0,-99.9,29.94,North,-999,-999.0,-999.0,-999,-99.99,,,-99.99,,2013-07-13 12:02:00,
2013-07-13 08:43:00,-999.0,-99.9,29.95,South,172,8.0,9.0,-999,-99.99,,,-99.99,,2013-07-13 12:43:00,
2013-07-13 08:52:00,-999.0,-99.9,29.95,South,174,6.0,9.0,-999,-99.99,,,-99.99,,2013-07-13 12:52:00,
2013-07-13 09:01:00,-999.0,-99.9,29.95,South,174,6.0,9.0,-999,-99.99,,,-99.99,,2013-07-13 13:01:00,
2013-07-13 09:12:00,-999.0,-99.9,29.96,South,169,7.0,9.0,-999,-99.99,,,-99.99,,2013-07-13 13:12:00,
2013-07-13 09:43:00,-999.0,-99.9,29.98,SSE,168,8.0,9.0,-999,-99.99,,,-99.99,,2013-07-13 13:43:00,
2013-07-13 10:02:00,80.0,-99.9,29.98,North,-999,-999.0,-999.0,-999,-99.99,,,-99.99,,2013-07-13 14:02:00,
2013-07-13 10:33:00,-999.0,-99.9,29.99,SSE,160,6.0,8.0,-999,-99.99,,,-99.99,,2013-07-13 14:33:00,
2013-07-13 10:53:00,82.0,-99.9,29.99,North,-999,-999.0,-999.0,-999,-99.99,,,-99.99,,2013-07-13 14:53:00,
2013-07-13 11:12:00,-999.0,-99.9,29.99,SSE,152,7.0,9.0,-999,-99.99,,,-99.99,,2013-07-13 15:12:00,
2013-07-13 11:33:00,-999.0,-99.9,29.99,SSE,164,8.0,9.0,-999,-99.99,,,-99.99,,2013-07-13 15:33:00,
2013-07-13 11:43:00,82.0,-99.9,29.99,North,-999,-999.0,-999.0,-999,-99.99,,,-99.99,,2013-07-13 15:43:00,
2013-07-13 11:53:00,83.0,-99.9,29.99,North,-999,-999.0,-999.0,-999,-99.99,,,-99.99,,2013-07-13 15:53:00,
2013-07-13 12:02:00,-999.0,-99.9,29.99,SSE,166,11.0,13.0,-999,-99.99,,,-99.99,,2013-07-13 16:02:00,
2013-07-13 12:22:00,-999.0,-99.9,29.98,South,187,9.0,11.0,-999,-99.99,,,-99.99,,2013-07-13 16:22:00,
2013-07-13 12:33:00,-999.0,-99.9,29.99,SSW,212,7.0,8.0,-999,-99.99,,,-99.99,,2013-07-13 16:33:00,
2013-07-13 12:43:00,81.0,-99.9,29.99,North,-999,-999.0,-999.0,-999,-99.99,,,-99.99,,2013-07-13 16:43:00,
2013-07-13 12:53:00,-999.0,-99.9,30.00,SSW,211,7.0,10.0,-999,-99.99,,,-99.99,,2013-07-13 16:53:00,
2013-07-13 13:01:00,82.0,-99.9,30.00,North,-999,-999.0,-999.0,-999,-99.99,,,-99.99,,2013-07-13 17:01:00,
2013-07-13 13:33:00,-999.0,-99.9,29.99,SE,137,11.0,13.0,-999,-99.99,,,-99.99,,2013-07-13 17:33:00,
2013-07-13 13:43:00,81.0,-99.9,30.00,North,-999,-999.0,-999.0,-999,-99.99,,,-99.99,,2013-07-13 17:43:00,
2013-07-13 13:52:00,-999.0,-99.9,30.00,SE,141,12.0,14.0,-999,-99.99,,,-99.99,,2013-07-13 17:52:00,
2013-07-13 14:02:00,-999.0,-99.9,29.98,SSE,154,11.0,14.0,-999,-99.99,,,-99.99,,2013-07-13 18:02:00,
2013-07-13 14:22:00,-999.0,-99.9,29.98,SSE,160,13.0,16.0,-999,-99.99,,,-99.99,,2013-07-13 18:22:00,
2013-07-13 14:32:00,80.0,-99.9,29.99,North,-999,-999.0,-999.0,-999,-99.99,,,-99.99,,2013-07-13 18:32:00,
2013-07-13 14:44:00,80.0,-99.9,29.99,North,-999,-999.0,-999.0,-999,-99.99,,,-99.99,,2013-07-13 18:44:00,
2013-07-13 14:53:00,-999.0,-99.9,29.99,SSE,151,14.0,15.0,-999,-99.99,,,-99.99,,2013-07-13 18:53:00,
2013-07-13 15:32:00,-999.0,-99.9,29.97,South,174,13.0,16.0,-999,-99.99,,,-99.99,,2013-07-13 19:32:00,
2013-07-13 15:44:00,82.0,-99.9,29.97,North,-999,-999.0,-999.0,-999,-99.99,,,-99.99,,2013-07-13 19:44:00,
2013-07-13 15:52:00,-999.0,-99.9,29.96,SSW,199,9.0,12.0,-999,-99.99,,,-99.99,,2013-07-13 19:52:00,
2013-07-13 16:12:00,-999.0,-99.9,29.97,South,169,8.0,11.0,-999,-99.99,,,-99.99,,2013-07-13 20:12:00,
2013-07-13 16:22:00,-999.0,-99.9,29.97,North,359,5.0,9.0,-999,-99.99,,,-99.99,,2013-07-13 20:22:00,
2013-07-13 16:33:00,-999.0,-99.9,29.98,NNE,23,6.0,9.0,-999,-99.99,,,-99.99,,2013-07-13 20:33:00,
2013-07-13 16:43:00,-999.0,-99.9,29.97,NE,41,5.0,10.0,-999,-99.99,,,-99.99,,2013-07-13 20:43:00,
2013-07-13 16:53:00,81.0,-99.9,29.97,North,-999,-999.0,-999.0,-999,-99.99,,,-99.99,,2013-07-13 20:53:00,
2013-07-13 17:02:00,79.0,-99.9,29.99,North,-999,-999.0,-999.0,-999,-99.99,,,-99.99,,2013-07-13 21:02:00,
2013-07-13 17:12:00,-999.0,-99.9,29.98,ESE,123,14.0,19.0,-999,-99.99,,,-99.99,,2013-07-13 21:12:00,
2013-07-13 17:43:00,76.0,-99.9,29.99,North,-999,-999.0,-999.0,-999,-99.99,,,-99.99,,2013-07-13 21:43:00,
2013-07-13 17:53:00,-999.0,-99.9,29.99,SE,141,17.0,20.0,-999,-99.99,,,-99.99,,2013-07-13 21:53:00,
2013-07-13 18:01:00,75.0,-99.9,29.99,North,-999,-999.0,-999.0,-999,-99.99,,,-99.99,,2013-07-13 22:01:00,
2013-07-13 18:12:00,-999.0,-99.9,29.97,East,90,7.0,9.0,-999,-99.99,,,-99.99,,2013-07-13 22:12:00,
2013-07-13 18:22:00,-999.0,-99.9,29.97,East,93,6.0,8.0,-999,-99.99,,,-99.99,,2013-07-13 22:22:00,
2013-07-13 18:32:00,78.0,-99.9,29.97,North,-999,-999.0,-999.0,-999,-99.99,,,-99.99,,2013-07-13 22:32:00,
2013-07-13 18:43:00,-999.0,-99.9,29.96,East,83,4.0,5.0,-999,-99.99,,,-99.99,,2013-07-13 22:43:00,
2013-07-13 18:53:00,-999.0,-99.9,29.96,East,88,3.0,4.0,-999,-99.99,,,-99.99,,2013-07-13 22:53:00,
2013-07-13 19:02:00,-999.0,-99.9,29.96,ESE,112,3.0,5.0,-999,-99.99,,,-99.99,,2013-07-13 23:02:00,
2013-07-13 19:22:00,-999.0,-99.9,29.97,NE,49,2.0,3.0,-999,-99.99,,,-99.99,,2013-07-13 23:22:00,
2013-07-13 19:33:00,80.0,-99.9,29.97,North,-999,-999.0,-999.0,-999,-99.99,,,-99.99,,2013-07-13 23:33:00,
2013-07-13 19:42:00,-999.0,-99.9,29.97,South,173,3.0,4.0,-999,-99.99,,,-99.99,,2013-07-13 23:42:00,
2013-07-13 19:53:00,-999.0,-99.9,29.98,SE,142,3.0,4.0,-999,-99.99,,,-99.99,,2013-07-13 23:53:00,
2013-07-13 20:22:00,-999.0,-99.9,29.98,East,90,1.0,2.0,-999,-99.99,,,-99.99,,2013-07-14 00:22:00,
2013-07-13 20:33:00,-999.0,-99.9,29.98,East,79,1.0,1.0,-999,-99.99,,,-99.99,,2013-07-14 00:33:00,
2013-07-13 20:42:00,80.0,-99.9,29.97,North,-999,-999.0,-999.0,-999,-99.99,,,-99.99,,2013-07-14 00:42:00,
2013-07-13 20:53:00,80.0,-99.9,29.98,North,-999,-999.0,-999.0,-999,-99.99,,,-99.99,,2013-07-14 00:53:00,
2013-07-13 21:02:00,80.0,-99.9,29.98,North,-999,-999.0,-999.0,-999,-99.99,,,-99.99,,2013-07-14 01:02:00,
2013-07-13 21:43:00,81.0,-99.9,30.00,North,-999,-999.0,-999.0,-999,-99.99,,,-99.99,,2013-07-14 01:43:00,
2013-07-13 21:52:00,81.0,-99.9,29.99,North,-999,-999.0,-999.0,-999,-99.99,,,-99.99,,2013-07-14 01:52:00,
2013-07-13 22:32:00,80.0,-99.9,30.00,North,-999,-999.0,-999.0,-999,-99.99,,,-99.99,,2013-07-14 02:32:00,
2013-07-13 22:43:00,80.0,-99.9,30.00,North,-999,-999.0,-999.0,-999,-99.99,,,-99.99,,2013-07-14 02:43:00,
2013-07-13 22:53:00,-999.0,-99.9,30.00,SSE,148,17.0,18.0,-999,-99.99,,,-99.99,,2013-07-14 02:53:00,
2013-07-13 23:12:00,-999.0,-99.9,30.00,SSE,149,17.0,20.0,-999,-99.99,,,-99.99,,2013-07-14 03:12:00,
2013-07-13 23:43:00,-999.0,-99.9,30.02,SE,142,16.0,21.0,-999,-99.99,,,-99.99,,2013-07-14 03:43:00,
2013-07-13 23:53:00,-999.0,-99.9,30.01,SSE,147,18.0,20.0,-999,-99.99,,,-99.99,,2013-07-14 03:53:00,